Weather Roundup
Issued by NWS Chicago, IL

Home | Current Version | Previous Version | Text Only | Print | Product List | Glossary Off
Versions: 1 2 3 4 5 6 7 8 9 10 11 12 13 14 15 16 17 18 19 20 21 22 23 24 25 26 27 28 29 30 31 32 33 34 35 36 37 38 39 40 41 42 43 44 45 46 47 48 49 50

000
NZUS59 KLOT 020410
HRRLOT

CHICAGO AREA WEATHER ROUNDUP
NATIONAL WEATHER SERVICE CHICAGO/ROMEOVILLE IL
1000 PM CST SUN MAR 01 2015

NOTE: "FAIR" INDICATES FEW OR NO CLOUDS BELOW 12,000 FEET WITH NO
SIGNIFICANT WEATHER AND/OR OBSTRUCTIONS TO VISIBILITY.

* THESE STATIONS ARE NOT UNDER NWS QUALITY CONTROL. THEY ALSO MAY NOT
  REPORT WEATHER SUCH AS PRECIPITATION OR FOG.

ILZ005-006-012>014-019>023-020500-
NORTHEAST ILLINOIS

CITY           SKY/WX    TMP DP  RH WIND       PRES   REMARKS
OHARE          CLEAR     19  13  77 W13       30.32R WCI   6
MIDWAY         CLEAR     22  15  75 W14       30.34R WCI   9
AURORA         CLEAR     15   9  76 W13       30.36R WCI   1
LANSING*       PTCLDY    19  13  79 SW7       30.34R WCI  10
JOLIET*        CLEAR     16  11  82 W8        30.38R WCI   5
WAUKEGAN       CLEAR     20  11  68 W10G21    30.29R WCI   9
DUPAGE AIRPORT CLEAR     18  12  77 W14       30.33R WCI   4
WHEELING       CLEAR     21  12  68 W17G23    30.33R WCI   7
KANKAKEE*      MOCLDY    17  13  84 W14       30.38R WCI   3
MORRIS*        CLEAR     16  13  87 W12       30.37R WCI   3
LEWIS AIRPORT* CLEAR     17  12  82 W12       30.36R WCI   4
NORTHERLY IS     N/A     23  15  71 SW10        N/A  WCI  13
$$

WIZ051-052-058>065-066-070>072-020500-
SOUTHEAST WISCONSIN

CITY           SKY/WX    TMP DP  RH WIND       PRES   REMARKS
MILWAUKEE      CLEAR     23   9  55 W15G25    30.28R WCI  10
KENOSHA*       CLEAR     20  11  68 W18       30.29R WCI   5
RACINE*        CLEAR     21  11  65 W10       30.30R WCI  10
BURLINGTON     CLEAR     17   7  65 W12       30.30R WCI   4
WAUKESHA       CLEAR     19   9  63 W14       30.29R WCI   6
WEST BEND      CLEAR     21   9  58 W15G21    30.26R WCI   8
$$

INZ001>003-010>013-019-020-020500-
NORTHWEST INDIANA

CITY           SKY/WX    TMP DP  RH WIND       PRES   REMARKS
GARY*          PTCLDY    22  12  66 SW6       30.35R WCI  14
MICHIGAN CITY* NOT AVBL
RENSSELAER*    NOT AVBL
VALPARAISO     MOCLDY    17  12  80 W13       30.33R WCI   4
$$

LMZ740>746-020500-
SOUTHERN LAKE MICHIGAN

STATION/POSITION TIME  SKY/WX   TEMP WIND        PRES    VSBY
                                AIR  DIR/SP/G
                 (UTC)          (F)  (DEG/KT/KT) (MB)    (MI)
HARRISON CRIB    0400            23  270/ 21/ 25   N/A
BURNHAM HARBOR   0400            22  270/  8/ 14   N/A
CALUMET HARBOR   0300                230/  7/ 11 1025.6R
BURNS HARBOR     NOT AVBL
MICHIGAN CITY    0400            18  210/ 12/ 15   N/A
$$

ABBREVIATIONS USED IN REMARKS
   TC - TEMPERATURE IN CELSIUS
  WCI - WIND CHILL INDEX
   HX - HEAT INDEX
  VSB - VISIBILITY
$$



USA.gov is the U.S. government's official web portal to all federal, state and local government web resources and services.